Saint Martin Island, Sint Maarten

9:36 AM AST on February 24, 2017 (GMT -0400)
Princess Juliana International

Weather History for TNCM - December, 2012

Change the Weather History Date:

Tuesday, December 4, 2012

  Actual Average Record
Temperature  
Mean Temperature 82 °F -  
Max Temperature 86 °F 82 °F 86 °F (1997)
Min Temperature 78 °F 73 °F 71 °F (1996)
Cooling Degree Days 17    
Growing Degree Days 32 (Base 50)    
Moisture  
Dew Point 70 °F    
Average Humidity 67    
Maximum Humidity 78    
Minimum Humidity 50    
Precipitation  
Precipitation 0.00 in 0.11 in - ()
Sea Level Pressure  
Sea Level Pressure 29.92 in    
Wind  
Wind Speed 12 mph ()    
Max Wind Speed 16 mph    
Max Gust Speed -    
Visibility 6.2 miles    
Events      
Averages and records for this station are not official NWS values.
T = Trace of Precipitation, MM = Missing Value Source: Averaged Metar Reports

Daily Weather History Graph

Daily Weather History Graph

Search for Another Location

Airport or City:

Trip Planner

Search our weather history database for the weather conditions in past years. The results will help you decide how hot, cold, wet, or windy it might be!

Date:

Astronomy

Dec. 04, 2012 Rise Set
Actual Time 6:29 AM AST 5:36 PM AST
Civil Twilight 6:06 AM AST 5:59 PM AST
Nautical Twilight 5:39 AM AST 6:26 PM AST
Astronomical Twilight 5:12 AM AST 6:53 PM AST
Moon 10:47 PM AST (12/4) 10:48 AM AST (12/4)
Length of Visible Light 11h 53m
Length of Day
11h 06m
Waning Gibbous, 70% of the Moon is Illuminated
Dec 4
Waning Gibbous
Dec 6
Last Quarter
Dec 13
New
Dec 20
First Quarter
Dec 28
Full

Hourly Weather History & Observations

Time (AST) Temp. Heat Index Dew Point Humidity Pressure Visibility Wind Dir Wind Speed Gust Speed Precip Events Conditions
12:00 AM 78.8 °F - 71.6 °F 78% 29.92 in 6.2 mi ENE 11.5 mph - N/A   Scattered Clouds
1:00 AM 78.8 °F - 71.6 °F 78% 29.89 in 6.2 mi ENE 11.5 mph - N/A   Scattered Clouds
2:00 AM 80 °F - 71 °F 66% 29.90 in 25 mi NE 10.4 mph - -   Partly Cloudy
2:00 AM 78.8 °F - 71.6 °F 78% 29.89 in 6.2 mi NE 10.4 mph - N/A   Partly Cloudy
3:00 AM 78.8 °F - 69.8 °F 74% 29.89 in 6.2 mi NE 13.8 mph - N/A   Partly Cloudy
4:00 AM 78.8 °F - 69.8 °F 74% 29.86 in 6.2 mi NE 15.0 mph - N/A   Partly Cloudy
5:00 AM 80 °F - 69 °F 63% 29.89 in 25 mi NE 15.0 mph - -   Mostly Cloudy
5:00 AM 78.8 °F - 69.8 °F 74% 29.89 in 6.2 mi NE 15.0 mph - N/A   Mostly Cloudy
6:00 AM 78.8 °F - 69.8 °F 74% 29.89 in 6.2 mi NE 15.0 mph - N/A   Scattered Clouds
7:00 AM 80.6 °F 83.9 °F 69.8 °F 70% 29.92 in 6.2 mi NE 12.7 mph - N/A   Partly Cloudy
8:00 AM 81 °F - 69 °F 58% 29.95 in 31 mi NE 12.7 mph - -   Scattered Clouds
8:00 AM 80.6 °F 83.2 °F 68.0 °F 65% 29.95 in 6.2 mi NE 12.7 mph - N/A   Partly Cloudy
9:00 AM 82.4 °F 86.3 °F 69.8 °F 66% 29.95 in 6.2 mi ENE 16.1 mph - N/A   Partly Cloudy
11:00 AM 84 °F - 70 °F 55% 29.98 in 31 mi ENE 13.8 mph - -   Scattered Clouds
11:00 AM 84.2 °F 88.4 °F 69.8 °F 62% 29.98 in 6.2 mi ENE 13.8 mph - N/A   Partly Cloudy
12:00 PM 86.0 °F 91.8 °F 71.6 °F 62% 29.95 in 6.2 mi ENE 16.1 mph - N/A   Partly Cloudy
1:00 PM 84.2 °F 88.4 °F 69.8 °F 62% 29.92 in 6.2 mi ENE 16.1 mph - N/A   Scattered Clouds
2:00 PM 85 °F - 69 °F 50% 29.92 in 28 mi ENE 15.0 mph - -   Scattered Clouds
2:00 PM 84.2 °F 88.4 °F 69.8 °F 62% 29.92 in 6.2 mi NE 15.0 mph - N/A   Partly Cloudy
3:00 PM 84.2 °F 88.4 °F 69.8 °F 62% 29.89 in 6.2 mi NE 12.7 mph - N/A   Partly Cloudy
4:00 PM 84.2 °F 88.4 °F 69.8 °F 62% 29.89 in 6.2 mi NE 13.8 mph - N/A   Partly Cloudy
5:00 PM 82 °F - 70 °F 60% 29.91 in 28 mi ENE 13.8 mph - -   Partly Cloudy
5:00 PM 82.4 °F 86.3 °F 69.8 °F 66% 29.89 in 6.2 mi ENE 13.8 mph - N/A   Scattered Clouds
6:00 PM 80.6 °F 83.9 °F 69.8 °F 70% 29.92 in 6.2 mi NE 12.7 mph - N/A   Partly Cloudy
7:00 PM 80.6 °F 83.9 °F 69.8 °F 70% 29.92 in 6.2 mi ENE 12.7 mph - N/A   Partly Cloudy
8:00 PM 80 °F - 70 °F 64% 29.96 in 25 mi East 9.2 mph - -   Scattered Clouds
8:00 PM 80.6 °F 83.9 °F 69.8 °F 70% 29.95 in 6.2 mi ENE 10.4 mph - N/A   Partly Cloudy
9:00 PM 80.6 °F 83.9 °F 69.8 °F 70% 29.95 in 6.2 mi ENE 10.4 mph - N/A   Partly Cloudy
10:00 PM 80.6 °F 83.9 °F 69.8 °F 70% 29.95 in 6.2 mi ENE 10.4 mph - N/A   Partly Cloudy
11:00 PM 80 °F - 70 °F 64% 29.96 in 25 mi ENE 10.4 mph - -   Scattered Clouds
11:00 PM 80.6 °F 83.9 °F 69.8 °F 70% 29.95 in 6.2 mi ENE 10.4 mph - N/A   Partly Cloudy